Regional Weather Roundup
Issued by NWS

Home | Current Version | Previous Version | Graphics & Text | Print | Product List | Glossary On
Versions: 1 2 3 4 5 6 7 8 9 10 11 12 13 14 15 16 17 18 19 20 21 22 23 24 25 26 27 28 29 30 31 32 33 34 35 36 37 38 39 40 41 42 43 44 45 46 47 48 49 50
110
ASUS44 KLIX 200710
RWRLA
LOUISIANA WEATHER ROUNDUP
NATIONAL WEATHER SERVICE NEW ORLEANS LA
100 AM CST SAT DEC 20 2014

NOTE: "FAIR" INDICATES FEW OR NO CLOUDS BELOW 12,000 FEET WITH NO
      SIGNIFICANT WEATHER AND/OR OBSTRUCTIONS TO VISIBILITY.
      SKY/WX - SKY CONDITION AND SIGNIFICANT WEATHER.
      TMP - AIR TEMPERATURE.    DP   - DEWPOINT TEMPERATURE.
      RH  - RELATIVE HUMIDITY.  PRES - PRESSURE.
      HX  - HEAT INDEX.         WCI  - WIND CHILL INDEX.

*  THESE STATIONS ARE NOT NWS OR FAA STATIONS AND ARE NOT UNDER
   NWS QUALITY CONTROL.

LAZ040-048-061>063-065-066-069-200800-
SOUTHEAST LOUISIANA

CITY           SKY/WX    TMP DP  RH WIND       PRES   REMARKS
N.O. AUDUBON     N/A     50  50  99 MISG        N/A
N.O. INTL ARPT LGT RAIN  51  48  89 NE13      30.06F FOG
N.O. LAKEFRONT LGT RAIN  52  49  89 NE16      30.07F
N.O. DOWNTOWN* CLOUDY    50  45  81 NE6       30.07S
SLIDELL        RAIN      50  47  89 N8        30.07F FOG
BATON ROUGE    LGT RAIN  48  46  93 N5        30.10R
BOOTHVILLE     LGT RAIN  58  57  97 N7        30.01F
BELLE CHASSE   LGT RAIN  50  48  93 NE12      30.05S FOG
BOGALUSA*      DRIZZLE   48  46  90 N7        30.11F
GALLIANO*      CLOUDY    54  53  97 MISG      30.04S
NEW ROADS*     CLOUDY    47  46  96 N8        30.11S
GONZALES*      CLOUDY    50  50 100 NE5       30.07S
HAMMOND*       NOT AVBL
HOUMA*         LGT RAIN  50  49  97 N9        30.04F
PORT FOURCHON* FOG       55  55 100 NE17      30.04S VSB 1

$$

LAZ041-044-053-054-200800-
SOUTHWEST LOUISIANA

CITY           SKY/WX    TMP DP  RH WIND       PRES   REMARKS
LAKE CHARLES   CLOUDY    50  48  93 MISG      30.10S FOG
LAFAYETTE      CLOUDY    49  49 100 N12       30.09S
PATTERSON      CLOUDY    52  48  87 NE9       30.05S
SALT POINT       N/A     55  51  86 VRB6      30.02S
NEW IBERIA     CLOUDY    50  48  93 N15       30.09S
CHENAULT AIRPK CLOUDY    49  48  97 N12       30.11S FOG

$$

LAZ027-028-200800-
CENTRAL LOUISIANA

CITY           SKY/WX    TMP DP  RH WIND       PRES   REMARKS
FORT POLK      CLOUDY    47  46  96 NE9       30.13S
ALEXANDRIA INT CLOUDY    47  46  97 NE7       30.14S
ALEXANDRIA     CLOUDY    47  45  93 VRB5      30.15S

$$

LAZ001-002-200800-
NORTHWEST LOUISIANA

CITY           SKY/WX    TMP DP  RH WIND       PRES   REMARKS
SHREVEPORT     CLOUDY    47  44  90 N8        30.19S
BARKSDALE AFB  NOT AVBL
DTN SHREVEPORT CLOUDY    46  42  86 NE6       30.20S

$$

LAZ014-016-200800-
NORTHEAST LOUISIANA

CITY           SKY/WX    TMP DP  RH WIND       PRES   REMARKS
MONROE         CLOUDY    45  43  93 NE8       30.21S
TALLULAH       CLOUDY    46  44  93 N9        30.19S

$$




USA.gov is the U.S. government's official web portal to all federal, state and local government web resources and services.